CW9676 Weather Reports


time (UTC)temp
C
wind
direction
speed
KPH
gust
KPH
rain 1hr
cm
rain 24hr
cm
rain mn
cm
humidity
%
barometer
mb
20260902165933 26 202 9.7 19.3 0.00 0.00 0.00 33 1009.7
20260902162647 25 156 9.7 19.3 0.00 0.00 0.00 39 1009.6
20260902161704 25 157 8.0 19.3 0.00 0.00 0.00 40 1009.6
20260902160729 25 4 8.0 19.3 0.00 0.00 0.00 41 1009.6
20260902155658 25 210 8.0 17.7 0.00 0.00 0.00 42 1009.5
20260902153516 25 160 6.4 16.1 0.00 0.00 0.00 40 1009.4
20260902152459 24 202 8.0 19.3 0.00 0.00 0.00 40 1009.4
20260902150325 23 230 8.0 17.7 0.00 0.00 0.00 44 1009.4
20260902145344 22 213 8.0 17.7 0.00 0.00 0.00 44 1009.5
20260902144346 22 215 9.7 17.7 0.00 0.00 0.00 43 1009.5
20260902143324 22 233 11.3 19.3 0.00 0.00 0.00 42 1009.4
20260902142300 21 217 11.3 22.5 0.00 0.00 0.00 41 1009.4
20260902141324 21 212 11.3 22.5 0.00 0.00 0.00 43 1009.3
20260902135209 20 201 8.0 14.5 0.00 0.00 0.00 50 1009.3
20260902134146 19 4 6.4 17.7 0.00 0.00 0.00 52 1009.3
20260902133153 18 4 8.0 17.7 0.00 0.00 0.00 53 1009.3
20260902132138 18 214 8.0 16.1 0.00 0.00 0.00 54 1008.9
20260902131120 18 194 8.0 14.5 0.00 0.00 0.00 54 1008.9
20260902124914 18 177 8.0 16.1 0.00 0.00 0.00 55 1008.6
20260902123917 18 223 8.0 14.5 0.00 0.00 0.00 55 1008.5
20260902122942 18 213 8.0 16.1 0.00 0.00 0.00 54 1008.3
20260902121930 18 216 9.7 16.1 0.00 0.00 0.00 54 1008.1
20260902120946 18 4 8.0 16.1 0.00 0.00 0.00 55 1008.1
20260902120006 19 213 8.0 16.1 0.00 0.00 0.00 55 1008.2
20260902114959 19 216 9.7 16.1 0.00 0.00 0.00 55 1008.2
20260902113954 19 213 9.7 16.1 0.00 0.00 0.00 55 1008.2
20260902112956 19 4 8.0 14.5 0.00 0.00 0.00 55 1008.2
20260902111938 19 214 8.0 12.9 0.00 0.00 0.00 56 1008.2
20260902110905 19 195 6.4 12.9 0.00 0.00 0.00 55 1008.2
20260902105920 20 4 8.0 14.5 0.00 0.00 0.00 55 1008.1
20260902104918 20 221 8.0 16.1 0.00 0.00 0.00 54 1008.1
20260902103849 20 215 8.0 16.1 0.00 0.00 0.00 54 1008.1
20260902100656 20 4 6.4 14.5 0.00 0.00 0.00 53 1008.2
20260902095645 20 173 8.0 12.9 0.00 0.00 0.00 52 1008.1
20260902094653 20 219 8.0 12.9 0.00 0.00 0.00 52 1008.2
20260902093646 20 203 8.0 14.5 0.00 0.00 0.00 52 1008.2
20260902091433 19 4 4.8 9.7 0.00 0.00 0.00 53 1008.3
20260902090428 19 214 6.4 9.7 0.00 0.00 0.00 53 1008.2
20260902085407 19 229 6.4 9.7 0.00 0.00 0.00 53 1008.2
20260902083246 20 221 4.8 9.7 0.00 0.00 0.00 51 1008.3
20260902082247 19 4 6.4 9.7 0.00 0.00 0.00 51 1008.3
20260902081223 20 215 4.8 12.9 0.00 0.00 0.00 50 1008.4
20260902080215 20 4 6.4 12.9 0.00 0.00 0.00 49 1008.4
20260902074035 20 215 4.8 9.7 0.00 0.00 0.00 49 1008.5
20260902073044 20 223 4.8 8.0 0.00 0.00 0.00 49 1008.5
20260902072020 20 214 4.8 8.0 0.00 0.00 0.00 49 1008.5
20260902070956 20 221 4.8 8.0 0.00 0.00 0.00 49 1008.4
20260902065946 20 223 4.8 8.0 0.00 0.00 0.00 49 1008.5
20260902064923 20 215 6.4 9.7 0.00 0.00 0.00 49 1008.5
20260902063915 20 212 6.4 9.7 0.00 0.00 0.00 49 1008.5
20260902062908 20 221 4.8 8.0 0.00 0.00 0.00 48 1008.5
20260902060723 20 212 4.8 8.0 0.00 0.00 0.00 48 1008.6
20260902054626 20 218 3.2 8.0 0.00 0.00 0.00 48 1008.7
20260902053621 21 4 3.2 6.4 0.00 0.00 0.00 48 1008.7
20260902052550 21 4 3.2 8.0 0.00 0.00 0.00 47 1008.6
20260902051518 21 215 4.8 9.7 0.00 0.00 0.00 47 1008.8
20260902050459 21 194 4.8 11.3 0.00 0.00 0.00 46 1008.8
20260902045519 21 219 6.4 11.3 0.00 0.00 0.00 46 1008.8
20260902044449 21 225 4.8 12.9 0.00 0.00 0.00 46 1008.8
20260902043418 22 191 6.4 16.1 0.00 0.00 0.00 46 1008.7
20260902041215 22 175 4.8 9.7 0.00 0.00 0.00 46 1008.6
20260902035054 22 4 6.4 14.5 0.00 0.00 0.00 45 1008.4
20260902034022 22 195 4.8 14.5 0.00 0.00 0.00 45 1008.3
20260902030752 23 4 6.4 14.5 0.00 0.00 0.00 43 1007.7
20260902025728 23 195 3.2 9.7 0.00 0.00 0.00 43 1007.5
20260902024737 23 210 4.8 8.0 0.00 0.00 0.00 43 1007.3
20260902023734 23 190 4.8 14.5 0.00 0.00 0.00 42 1007.0
20260902022753 23 4 6.4 14.5 0.00 0.00 0.00 42 1006.9
20260902021815 23 200 6.4 14.5 0.00 0.00 0.00 41 1006.8
20260902020747 24 203 6.4 14.5 0.00 0.00 0.00 41 1006.7
20260902015722 25 191 6.4 17.7 0.00 0.00 0.00 40 1006.6
20260902014733 25 161 6.4 17.7 0.00 0.00 0.00 39 1006.4
20260902013735 25 213 4.8 9.7 0.00 0.00 0.00 37 1006.3
20260902012743 26 179 4.8 9.7 0.00 0.00 0.00 35 1006.2
20260902011717 26 196 3.2 12.9 0.00 0.00 0.00 34 1006.3
20260902010740 27 189 6.4 12.9 0.00 0.00 0.00 34 1006.3
20260902005717 26 160 4.8 17.7 0.00 0.00 0.00 35 1006.3
20260902004647 26 200 8.0 17.7 0.00 0.00 0.00 36 1006.3
20260902003632 27 169 8.0 14.5 0.00 0.00 0.00 34 1006.3
20260902001438 27 146 9.7 20.9 0.00 0.00 0.00 33 1006.4
20260902000455 27 149 9.7 20.9 0.00 0.00 0.00 34 1006.6
20260901235422 27 159 9.7 20.9 0.00 0.00 0.00 35 1006.6
20260901234419 28 4 8.0 22.5 0.00 0.00 0.00 33 1006.6
20260901233354 28 146 12.9 22.5 0.00 0.00 0.00 32 1006.6
20260901232322 29 127 8.0 24.1 0.00 0.00 0.00 32 1006.5
20260901231341 28 143 12.9 24.1 0.00 0.00 0.00 30 1006.6
20260901230338 28 148 9.7 22.5 0.00 0.00 0.00 32 1006.6
20260901225324 28 177 11.3 24.1 0.00 0.00 0.00 31 1006.7
20260901224256 28 96 11.3 24.1 0.00 0.00 0.00 31 1006.8
20260901223245 28 156 9.7 20.9 0.00 0.00 0.00 31 1006.7
20260901222251 28 154 9.7 24.1 0.00 0.00 0.00 32 1006.9
20260901220152 28 180 4.8 29.0 0.00 0.00 0.00 33 1006.9
20260901214030 28 156 11.3 20.9 0.00 0.00 0.00 33 1007.1
20260901213030 28 163 11.3 19.3 0.00 0.00 0.00 33 1007.2
20260901210833 29 163 8.0 20.9 0.00 0.00 0.00 34 1007.5
20260901205802 28 155 4.8 22.5 0.00 0.00 0.00 34 1007.7
20260901204804 28 137 9.7 22.5 0.00 0.00 0.00 35 1007.9
20260901203743 28 131 6.4 20.9 0.00 0.00 0.00 36 1008.0
20260901202756 27 238 8.0 20.9 0.00 0.00 0.00 37 1008.1
20260901200709 27 138 4.8 16.1 0.00 0.00 0.00 38 1008.4
20260901195721 27 107 4.8 16.1 0.00 0.00 0.00 39 1008.4
20260901194711 26 137 6.4 16.1 0.00 0.00 0.00 41 1008.6
20260901193638 26 217 3.2 20.9 0.00 0.00 0.00 42 1008.7
20260901192604 25 162 11.3 20.9 0.00 0.00 0.00 43 1008.8
20260901191537 25 140 9.7 19.3 0.00 0.00 0.00 43 1008.8
20260901190538 26 184 6.4 16.1 0.00 0.00 0.00 42 1008.8
20260901185538 25 134 8.0 19.3 0.00 0.00 0.00 44 1008.9
20260901184601 25 151 8.0 19.3 0.00 0.00 0.00 44 1009.0
20260901183543 25 184 6.4 17.7 0.00 0.00 0.00 44 1009.0
20260901182550 25 50 6.4 16.1 0.00 0.00 0.00 45 1009.2
20260901181610 25 153 8.0 16.1 0.00 0.00 0.00 45 1009.2
20260901175522 26 122 6.4 14.5 0.00 0.00 0.00 42 1009.4
20260901173316 25 138 8.0 20.9 0.00 0.00 0.00 44 1009.4
20260901172248 25 197 9.7 20.9 0.00 0.00 0.00 45 1009.5
20260901171226 25 131 8.0 16.1 0.00 0.00 0.00 46 1009.6
20260901170230 24 4 9.7 17.7 0.00 0.00 0.00 49 1009.5